DECAYED

STARLINK-1911, 46749 (Decayed)

Orbit data source: Space-Track

STARLINK-1911, 46749 was a payload satellite owned by SpaceX/Seattle (US) in LEO that was launched on Sat, 24 Oct 2020 UTC via an FALCON 9 launch vehicle from the Air Force Eastern Test Range (AFETR). Payload-class satellites include a variety of spacecraft equipped with specific instruments for various scientific and technological missions. These include communications satellites like Starlink; space stations such as the ISS; scientific satellites like the Hubble; Earth observation satellites from companies like Planet Labs, Umbra, and HawkEye 360; GPS; miniature CubeSats for education and research; and military/defense satellites.

Not visible in the next 10 days
Identifier
46749, 2020-074L
Orbit
Decayed
Country
Flag of USUS
Related business
Manufacturer
SpaceX/Seattle
Mission
Decayed Commercial Communications
Bus & Motor
STARLINK, Unknown motor
Mass
260 kg wet, ~248 kg dry
Launch date (UTC)
2020-10-24 (6 years ago)
Launch vehicle
FALCON 9
Launch site
Air Force Eastern Test Range (AFETR)
Object type
Payload
Rocket body
Debris
Shape & HBR
Box + 1 Pan, 10.1 m
Radar Cross Section
13.562 m², Large (>1 m²)

Expand to show TLE details & history
Last TLE update: 4 months ago

TLE from 4 months ago
0 STARLINK-1911
1 46749U 20074L   26144.75913869  .09325211  12522-4  44407-3 0  9999
2 46749  53.0224 251.7670 0009288 307.2636  52.7564 16.42379725309377
Epoch: 2026-05-24T18:13Z
TLE epoch observation values (Epoch: 2026-05-24T18:13:09.582Z)
Latitude
-0°
Longitude
96.1204°
Altitude
156.736 km
Speed
7.816 km/s
True Right ascension
16h 47m 04s
True Declination
0° 00' 00"
Sunlit
Object was in full shadow at epoch
Visualization orbit readout
Latitude
Unknown
Longitude
Unknown
Altitude
Unknown
Speed
Unknown
Apparent Right ascension
Unknown
Apparent Declination
Unknown
Sunlit
N/A
Visualization observer readout
Local Sidereal Time
03:33:53
Azimuth
Unknown
Elevation
Unknown
Doppler factor
Unknown
Orbital elements
Apogee altitude
165.844 km
Perigee altitude
153.699 km
Semi-major axis
6,537.908 km
Eccentricity
0.00093
Inclination
53.0224°
RAAN
251.767°
Arg. of periapsis
307.2636°
True anomaly
52.84119°
Mean anomaly
52.7564°
Eccentric anomaly
52.79879°
Mean motion
4.10568 °/min
Orbital period
87.68 mins
BSTAR
0.00044407
Loading maneuver chart data...
Computing Atmospheric mass density...

Documentation

Showing up to 5 results
|